STARLINK-11557, 62837

Orbit data source: Space-Track

STARLINK-11557, 62837 is a payload satellite owned by SpaceX/Seattle (US) in LEO that was launched on Mon, 27 Jan 2025 UTC via an FALCON 9 launch vehicle from the Air Force Eastern Test Range (AFETR). Payload-class satellites include a variety of spacecraft equipped with specific instruments for various scientific and technological missions. These include communications satellites like Starlink; space stations such as the ISS; scientific satellites like the Hubble; Earth observation satellites from companies like Planet Labs, Umbra, and HawkEye 360; GPS; miniature CubeSats for education and research; and military/defense satellites.

Loading next visibility...
Identifier
62837, 2025-019J
Orbit
LEO
Last TLE update
22 hours ago
Origin
Manufacturer
SpaceX/Seattle
Mission
Operational Commercial Communications
Bus & Motor
STARLINK V2M, Unknown motor
Mass
730 kg wet, ~700 kg dry
Launch date (UTC)
2025-01-27 (3 months ago)
Launch vehicle
FALCON 9
Launch site
Air Force Eastern Test Range (AFETR)
Object type
Payload
Rocket body
Debris
Shape & HBR
Box + 2 Pan, 29 m
Radar Cross Section
36.964 m², Large (>1 m²)

Expand to show TLE details & history

TLE from 22 hours ago
0 STARLINK-11557
1 62837U 25019J   25128.30809882  .00001141  00000-0  12395-4 0  9990
2 62837  43.0013 346.5877 0001684 271.9945  88.0730 15.70830614 16799
Epoch: 2025-05-08T07:23Z
Definitive object data (Epoch: 2025-05-08T07:23:39.738Z)
Latitude
0.00002°
Longitude
9.29168°
Altitude
356.255 km
Speed
7.697 km/s
True Right ascension
23h 06m 21s
True Declination
0° 00' 00"
Sunlit
Object was in daylight at TLE epoch
Visualization TLE readout
Latitude
15.63591°
Longitude
166.39293°
Altitude
356.182 km
Speed
7.698 km/s
Apparent Right ascension
06h 28m 54s
Apparent Declination
-21° 12' 35"
Sunlit
Object is in daylight
Visualization observer readout
Local Sidereal Time
13:34:01
Azimuth
263.005° W
Elevation
-25.632°
Doppler factor
1
Orbital elements
Apogee altitude
359.638 km
Perigee altitude
357.369 km
Semi-major axis
6,736.64 km
Eccentricity
0.0001684
Inclination
43.0013°
RAAN
346.5877°
Arg. of periapsis
271.9945°
True anomaly
88.09229°
Mean anomaly
88.073°
Eccentric anomaly
88.08264°
Mean motion
3.92535 °/min
BSTAR
0.000012395
Orbital period
91.71 mins
Loading maneuver chart data...
Loading SW <> Apogee altitude chart data...
Loading historical data...
Loading historical data...
Loading historical data...
Loading historical data...
Loading historical data...
Loading historical data...
Loading historical data...

STARLINK-11557 Visibility forecast

Observer location: undefined°, undefined°

Span
Click to sort rows by Start time (UTC) header in descending order
Start Az.
Max El. time (UTC)
Max El. Az.
Max El.
End time (UTC)
End Az.
4 mins2025-05-09 17:10:21.409Z192.58° SSW2025-05-09 17:12:21.409Z138.82° SSE20.269°2025-05-09 17:14:21.409Z95.521° ESE
4 mins2025-05-09 18:46:21.409Z260.762° W2025-05-09 18:48:21.409Z46.12° ENE41.202°2025-05-09 18:50:21.409Z69.293° E
4 mins2025-05-09 21:59:21.409Z289.367° WNW2025-05-09 22:00:21.409Z296.235° NW44.288°2025-05-09 22:03:21.409Z108.299° ESE
|